Tracking 30995 objects as of 7-Jul-2025
HD Live streaming from Space Station
objects crossing your sky now

STARLINK-1185

Track STARLINK-1185 now!
10-day predictions
STARLINK-1185 is classified as:


NORAD ID: 45087
Int'l Code: 2020-006AV
Perigee: 553.3 km
Apogee: 555.3 km
Inclination: 53.1 °
Period: 95.6 minutes
Semi major axis: 6925 km
RCS: Unknown
Launch date: January 29, 2020
Source: United States (US)
Launch site: AIR FORCE EASTERN TEST RANGE (AFETR)
Your satellite tracking list
USA 382
Track 1 satellite(s)




NASA's NSSDC Master Catalog

Two Line Element Set (TLE):
1 45087U 20006AV  25187.46390797  .00002118  00000-0  16099-3 0  9990
2 45087  53.0544 271.9792 0001471  67.6766 292.4379 15.06420223299916
Source of the keplerian elements: AFSPC